Regional Weather Roundup
Issued by NWS Northern Indiana

Home | Current Version | Previous Version | Graphics & Text | Print | Product List | Glossary On
Versions: 1 2 3 4 5 6 7 8 9 10 11 12 13 14 15 16 17 18 19 20 21 22 23 24 25 26 27 28 29 30 31 32 33 34 35 36 37 38 39 40 41 42 43 44 45 46 47 48 49 50
000
ASUS43 KIWX 172210
RWRIWX

KIWX WEATHER ROUNDUP
NATIONAL WEATHER SERVICE NORTHERN INDIANA
500 PM EST WED DEC 17 2014

NOTE: "FAIR" INDICATES FEW OR NO CLOUDS BELOW 12,000 FEET WITH NO
SIGNIFICANT WEATHER AND/OR OBSTRUCTIONS TO VISIBILITY.

* THESE STATIONS ARE NOT UNDER NWS QUALITY CONTROL. THEY ALSO MAY NOT
  REPORT WEATHER SUCH AS PRECIPITATION OR FOG.

INZ001>027-172300-
NORTHERN INDIANA

CITY           SKY/WX    TMP DP  RH WIND       PRES   REMARKS
GARY*          CLOUDY    28  19  69 W14       30.22  WCI  17
VALPARAISO     FLURRIES  25  19  78 W13       30.23R WCI  14
MICHIGAN CITY* CLOUDY    28  19  69 W8        30.23R WCI  20
LAPORTE*       CLOUDY    28  23  81 W9        30.22R WCI  19
KNOX*          CLOUDY    27  19  73 W8        30.22R WCI  19
SOUTH BEND     CLOUDY    28  20  71 W12       30.20R WCI  18
GOSHEN         CLOUDY    27  21  78 W12       30.19R WCI  17
MONTICELLO*    CLOUDY    25  21  83 W8        30.24R WCI  17
LOGANSPORT*    CLOUDY    27  21  80 W9        30.25R WCI  17
ROCHESTER*     CLOUDY    28  23  80 W10       30.23R WCI  19
WARSAW*        LGT SNOW  27  23  86 W8        30.21R WCI  18
ANGOLA*        CLOUDY    27  21  80 NW9       30.14R WCI  17
FORT WAYNE     FLURRIES  26  21  81 W14       30.20R WCI  14
HUNTINGTON*    CLOUDY    25  20  83 W13G18    30.21R WCI  13
PERU/GRISSOM   CLOUDY    25  23  93 W16       30.23R WCI  12
MARION*        CLOUDY    25  23  93 W14G24    30.23R WCI  13

$$
INZ028>050-172300-
CENTRAL INDIANA

CITY           SKY/WX    TMP DP  RH WIND       PRES   REMARKS
LAFAYETTE      CLOUDY    24  19  81 W8        30.27R WCI  15
KOKOMO*        CLOUDY    25  19  80 W18       30.24R WCI  11
MUNCIE*        CLOUDY    25  21  85 NW12      30.22R WCI  14
INDIANAPOLIS   CLOUDY    24  20  84 W8        30.25R WCI  15

$$
MIZ043>046-050>051-056>058-064>065-071>073-077>080-172300-
SOUTHWEST LOWER MICHIGAN

CITY           SKY/WX    TMP DP  RH WIND       PRES   REMARKS
BATTLE CREEK   CLOUDY    29  19  66 NW16G25   30.13R WCI  17
BENTON HARBOR  CLOUDY    28  19  69 W9        30.19R WCI  19
COLDWATER*     CLOUDY    28  22  77 W12G18    30.13R WCI  18
HILLSDALE*     CLOUDY    28  22  79 W18G24    30.10R WCI  15
HOLLAND        CLOUDY    30  19  63 W10G21    30.16R WCI  21
GRAND RAPIDS   FLURRIES  27  18  69 W16G26    30.13R WCI  15
KALAMAZOO      FLURRIES  28  20  71 NW14      30.15R WCI  17
STURGIS*       CLOUDY    27  21  80 W12G20    30.15R WCI  16
THREE RIVERS*  CLOUDY    28  21  74 W14       30.16R WCI  17

$$
OHZ001>008-015>018-024>025-172300-
NORTHWEST OHIO

CITY           SKY/WX    TMP DP  RH WIND       PRES   REMARKS
WAUSEON*       CLOUDY    30  21  69 W15G22    30.13R WCI  19
FINDLAY        CLOUDY    29  23  78 W15       30.14R WCI  18
TOLEDO EXPRESS CLOUDY    29  20  69 W12       30.13R WCI  19
TOLEDO METCALF CLOUDY    30  20  66 W18       30.14R WCI  18
LIMA           CLOUDY    31  21  66 W17G24    30.17R WCI  19

$$
AND FOR LAKE MICHIGAN COASTAL AND OPEN LAKE BUOY OBSERVATIONS

STATION/POSITION TEMP    WIND        PRES    VSBY  WAVE
                 AIR SEA DIR/SP/G                  HT/PER
                 (F)     (DEG/KT/KT) (MB)    (MI)  (FT/S)
CALUMET HARBOR    26     280/  9/ 12 1022.7R
SAINT JOSEPH      30     260/ 12/ 16 1022.7F

$$
&&



USA.gov is the U.S. government's official web portal to all federal, state and local government web resources and services.